Weather History for Athens, OH

Change the Weather History Date:

Sunday, January 27, 2013

  Actual Average (KPKB) Record (KPKB)
Temperature  
Mean Temperature 22 °F 32 °F  
Max Temperature 36 °F 40 °F 74 °F (1916)
Min Temperature 7 °F 23 °F -7 °F (1936)
Degree Days  
Heating Degree Days 44 33  
Month to date heating degree days 906  
Since 1 July heating degree days 2816  
Cooling Degree Days 0 0  
Month to date cooling degree days 0  
Year to date cooling degree days 0  
Moisture  
Dew Point 16 °F    
Average Humidity 72    
Maximum Humidity 91    
Minimum Humidity 49    
Precipitation  
Precipitation 0.00 in 0.10 in 0.47 in (2009)
Month to date precipitation 2.56  
Year to date precipitation 2.56  
Sea Level Pressure  
Sea Level Pressure 30.40 in    
Wind  
Wind Speed 1 mph (East)    
Max Wind Speed 8 mph    
Max Gust Speed -    
Visibility 10 miles    
Events Rain    
T = Trace of Precipitation, MM = Missing Value Source: NWS Daily Summary

Daily Weather History Graph

Daily Weather History Graph

Search for Another Location

Airport:

Trip Planner

Search our weather history database for the weather conditions in past years. The results will help you decide how hot, cold, wet, or windy it might be!

Date:

Astronomy

Jan. 27, 2013 Rise Set
Actual Time 7:39 AM EST 5:44 PM EST
Civil Twilight 7:11 AM EST 6:12 PM EST
Nautical Twilight 6:38 AM EST 6:45 PM EST
Astronomical Twilight 6:07 AM EST 7:16 PM EST
Moon 6:36 PM EST (1/27) 7:32 AM EST (1/27)
Length of Visible Light 11h 01m
Length of Day
10h 04m
Full, 100% of the Moon is Illuminated
Jan 27
Full
Feb 3
Last Quarter
Feb 10
New
Feb 17
First Quarter
Feb 25
Full

Hourly Weather History & Observations

Time (EST) Temp. Windchill Dew Point Humidity Pressure Visibility Wind Dir Wind Speed Gust Speed Precip Events Conditions
12:15 AM 25.5 °F - 15.8 °F 67% 30.44 in 10.0 mi Calm Calm - N/A   Mostly Cloudy
12:35 AM 21.4 °F - 14.4 °F 74% 30.43 in 10.0 mi Calm Calm - N/A   Scattered Clouds
12:55 AM 19.8 °F - 14.9 °F 81% 30.43 in 10.0 mi Calm Calm - N/A   Clear
1:15 AM 18.9 °F - 14.2 °F 82% 30.42 in 10.0 mi Calm Calm - N/A   Clear
1:35 AM 17.1 °F - 12.7 °F 83% 30.44 in 10.0 mi Calm Calm - N/A   Clear
1:55 AM 15.6 °F - 12.2 °F 86% 30.45 in 10.0 mi Calm Calm - N/A   Clear
2:15 AM 16.0 °F - 13.1 °F 88% 30.45 in 10.0 mi Calm Calm - N/A   Clear
2:35 AM 14.5 °F - 11.8 °F 89% 30.46 in 10.0 mi Calm Calm - N/A   Clear
2:55 AM 14.0 °F - 11.1 °F 88% 30.45 in 10.0 mi Calm Calm - N/A   Clear
3:15 AM 12.9 °F - 10.2 °F 89% 30.45 in 10.0 mi Calm Calm - N/A   Clear
3:35 AM 12.4 °F - 9.5 °F 88% 30.44 in 10.0 mi Calm Calm - N/A   Clear
3:55 AM 11.8 °F - 8.8 °F 88% 30.44 in 10.0 mi Calm Calm - N/A   Clear
4:15 AM 10.4 °F - 7.7 °F 89% 30.45 in 10.0 mi Calm Calm - N/A   Clear
4:35 AM 11.5 °F - 9.1 °F 90% 30.45 in 10.0 mi Calm Calm - N/A   Clear
4:55 AM 9.5 °F - 6.8 °F 89% 30.44 in 10.0 mi Calm Calm - N/A   Clear
5:15 AM 10.0 °F - 7.5 °F 90% 30.43 in 10.0 mi Calm Calm - N/A   Clear
5:35 AM 9.9 °F - 7.5 °F 90% 30.44 in 10.0 mi Calm Calm - N/A   Clear
5:55 AM 9.0 °F - 6.1 °F 88% 30.46 in 10.0 mi Calm Calm - N/A   Clear
6:15 AM 9.0 °F - 6.4 °F 89% 30.48 in 10.0 mi Calm Calm - N/A   Clear
6:35 AM 7.7 °F - 4.8 °F 88% 30.47 in 10.0 mi Calm Calm - N/A   Clear
6:55 AM 7.3 °F - 4.1 °F 87% 30.47 in 10.0 mi Calm Calm - N/A   Clear
7:15 AM 8.1 °F - 5.2 °F 88% 30.47 in 10.0 mi Calm Calm - N/A   Clear
7:35 AM 8.1 °F - 5.0 °F 87% 30.47 in 10.0 mi Calm Calm - N/A   Clear
7:55 AM 7.7 °F - 4.5 °F 87% 30.47 in 10.0 mi Calm Calm - N/A   Clear
8:15 AM 9.1 °F - 6.3 °F 88% 30.47 in 10.0 mi Calm Calm - N/A   Clear
8:35 AM 10.0 °F - 6.6 °F 86% 30.48 in 10.0 mi Calm Calm - N/A   Clear
8:55 AM 12.4 °F - 9.1 °F 87% 30.48 in 10.0 mi Calm Calm - N/A   Clear
9:15 AM 14.9 °F - 11.3 °F 86% 30.48 in 10.0 mi Calm Calm - N/A   Clear
9:35 AM 17.1 °F - 12.9 °F 84% 30.48 in 10.0 mi Calm Calm - N/A   Clear
9:55 AM 19.9 °F - 14.4 °F 79% 30.48 in 10.0 mi Calm Calm - N/A   Clear
10:15 AM 23.5 °F - 15.8 °F 72% 30.48 in 10.0 mi Calm Calm - N/A   Clear
10:35 AM 25.0 °F 20.7 °F 16.7 °F 71% 30.48 in 10.0 mi NE 3.5 mph - N/A   Clear
10:55 AM 26.6 °F 22.6 °F 18.0 °F 70% 30.48 in 10.0 mi ENE 3.5 mph - N/A   Clear
11:15 AM 27.9 °F - 18.1 °F 67% 30.47 in 10.0 mi Calm Calm - N/A   Clear
11:35 AM 29.8 °F 26.3 °F 18.3 °F 62% 30.47 in 10.0 mi SE 3.5 mph - N/A   Clear
11:55 AM 31.6 °F 26.0 °F 18.3 °F 58% 30.46 in 10.0 mi ESE 5.8 mph - N/A   Clear
12:15 PM 31.6 °F 26.0 °F 18.3 °F 58% 30.44 in 10.0 mi SE 5.8 mph - N/A   Clear
12:35 PM 32.7 °F 27.3 °F 18.5 °F 56% 30.43 in 10.0 mi ESE 5.8 mph - N/A   Clear
12:55 PM 33.8 °F 27.0 °F 18.7 °F 54% 30.42 in 10.0 mi East 8.1 mph - N/A   Clear
1:15 PM 33.6 °F 28.4 °F 19.2 °F 56% 30.41 in 10.0 mi East 5.8 mph - N/A   Clear
1:35 PM 35.1 °F 31.0 °F 19.0 °F 52% 30.40 in 10.0 mi SE 4.6 mph - N/A   Clear
1:55 PM 35.6 °F - 18.9 °F 51% 30.40 in 10.0 mi Calm Calm - N/A   Clear
2:15 PM 35.8 °F 30.1 °F 19.2 °F 51% 30.39 in 10.0 mi SSE 6.9 mph - N/A   Clear
2:35 PM 36.0 °F 31.1 °F 18.9 °F 50% 30.37 in 10.0 mi SE 5.8 mph - N/A   Clear
2:55 PM 35.6 °F 32.8 °F 19.2 °F 51% 30.37 in 10.0 mi East 3.5 mph - N/A   Clear
3:15 PM 36.0 °F 33.3 °F 18.9 °F 50% 30.37 in 10.0 mi East 3.5 mph - N/A   Clear
3:35 PM 36.5 °F 33.9 °F 18.9 °F 49% 30.37 in 10.0 mi East 3.5 mph - N/A   Clear
3:55 PM 36.3 °F 32.5 °F 18.9 °F 49% 30.36 in 10.0 mi East 4.6 mph - N/A   Clear
4:15 PM 36.1 °F - 19.6 °F 51% 30.36 in 10.0 mi North - - N/A   Clear
4:35 PM 36.1 °F 32.3 °F 19.6 °F 51% 30.36 in 10.0 mi SSE 4.6 mph - N/A   Scattered Clouds
4:55 PM 35.6 °F - 19.6 °F 52% 30.35 in 10.0 mi Calm Calm - N/A   Scattered Clouds
5:15 PM 35.6 °F 32.8 °F 19.2 °F 51% 30.34 in 10.0 mi SE 3.5 mph - N/A   Scattered Clouds
5:35 PM 35.6 °F - 19.9 °F 53% 30.35 in 10.0 mi Calm Calm - N/A   Overcast
5:55 PM 35.1 °F - 20.5 °F 55% 30.34 in 10.0 mi Calm Calm - N/A   Overcast
6:15 PM 35.1 °F - 20.1 °F 55% 30.34 in 10.0 mi Calm Calm - N/A   Overcast
6:35 PM 34.5 °F - 21.2 °F 58% 30.33 in 10.0 mi Calm Calm - N/A   Mostly Cloudy
6:55 PM 34.7 °F - 21.2 °F 58% 30.33 in 10.0 mi Calm Calm - N/A   Mostly Cloudy
7:15 PM 34.7 °F - 20.8 °F 57% 30.33 in 10.0 mi Calm Calm - N/A   Overcast
7:35 PM 33.8 °F 28.6 °F 23.0 °F 65% 30.31 in 10.0 mi ENE 5.8 mph - N/A   Overcast
7:55 PM 33.3 °F 30.2 °F 24.6 °F 71% 30.31 in 10.0 mi ENE 3.5 mph - N/A   Overcast
8:15 PM 33.4 °F - 24.1 °F 69% 30.31 in 10.0 mi Calm Calm - N/A   Overcast
8:35 PM 33.1 °F 30.0 °F 25.0 °F 72% 30.31 in 10.0 mi ENE 3.5 mph - N/A   Overcast
8:55 PM 34.2 °F - 22.6 °F 63% 30.30 in 10.0 mi Calm Calm - N/A   Overcast
9:15 PM 33.1 °F - 25.3 °F 73% 30.30 in 10.0 mi Calm Calm - N/A   Overcast
9:35 PM 33.8 °F - 23.7 °F 67% 30.29 in 10.0 mi Calm Calm - N/A   Overcast
9:55 PM 33.3 °F - 24.8 °F 71% 30.29 in 10.0 mi Calm Calm - N/A Rain Light Rain
10:15 PM 32.9 °F - 26.4 °F 77% 30.29 in 10.0 mi Calm Calm - N/A Rain Rain
10:35 PM 32.4 °F - 28.4 °F 85% 30.29 in 5.0 mi Calm Calm - N/A Rain Light Rain
10:55 PM 32.0 °F 28.7 °F 28.4 °F 87% 30.28 in 5.0 mi ENE 3.5 mph - N/A Rain Light Rain
11:15 PM 32.0 °F - 28.4 °F 87% 30.28 in 5.0 mi Calm Calm - N/A   Overcast
11:35 PM 32.0 °F - 29.3 °F 90% 30.27 in 5.0 mi Calm Calm - N/A   Overcast
11:55 PM 32.0 °F - 29.7 °F 91% 30.27 in 5.0 mi Calm Calm - N/A   Overcast